Location: Unspecified
(0.0000°N, 0.0000°E)
Time: 06:42:22
(UTC+00:00)

S-56A Canister/Altair - Pass Details

Date: 14 December 2018
Orbit: 633 x 2499 km, 38.9° (Epoch: 14 June)

Event Time Altitude Azimuth Distance (km) Brightness Sun altitude
Rises 08:00:43 0° 334° (NNW) 6,021 11.7 28.7°
Reaches altitude 10° 08:07:11 10° 354° (N) 5,138 11.5 30.2°
Maximum altitude 08:15:29 17° 28° (NNE) 4,577 11.6 32.0°
Drops below altitude 10° 08:23:24 10° 62° (ENE) 4,908 12.2 33.8°
Sets 08:29:11 0° 81° (E) 5,645 12.6 35.0°
